Location: Axtheid
(49.6213°N, 11.8205°E)
Time: 20:50:36
(UTC+00:00)

Ariane Rocket - Pass Details

Date: 24 January 2021
Orbit: 760 x 770 km, 98.7° (Epoch: 02 March)

Event Time Altitude Azimuth Distance (km) Brightness Sun altitude
Exits shadow 19:00:50 27° 350° (N) 1,439 4.5 -29.8°
Drops below altitude 10° 19:03:08 10° 347° (NNW) 2,320 5.7 -30.2°
Sets 19:05:27 0° 347° (NNW) 3,252 6.5 -30.5°
